Find Starlink 34495

NORAD ID: 64428 Int'l Des: 2025-129 Owner: SPXS Country: US Constellation: starlink operational
LEOCIRCULAR

現在のビュー

3D地球を読み込み中...

Starlink 34495について

説明を読み込み中...

次回通過

Passes for default location (London). Set your location on the main map for personalized predictions.

高度履歴

Loading altitude history...

軌道要素

1 64428U 25129S 26149.50348632 .00003098 00000-0 26730-3 0 9997
2 64428 70.0013 230.6471 0003572 268.4438 91.6312 14.98336672 53393
Epoch: May 29, 2026 • Age: 19 hours

現在のステータス

高度 586.5 km
速度 7.57 km/s
衛星直下点 -44.04°S, 80.58°E
打ち上げ日 Jun 17, 2025
運用期間 0.9 years
タイプ internet

技術仕様

分類 Payload
質量 575.00 kg
乾燥質量 530.00 kg
総質量 575.00 kg
長さ 0.30 m
直径 4.10 m
スパン 29.00 m
形状 Box + pan
製造者 SPXS
バスタイプ Starlink V2MO
フェーズステータス In Orbit
所有者/国 SPXS/US

Most Searched